Tracking 23752 objects as of 24-Oct-2021
HD Live streaming from Space Station
objects crossing your sky now

SL-14 DEB

Track SL-14 DEB now!
10-day predictions


NORAD ID: 45276
Int'l Code: 1991-056N
Perigee: 1,130.3 km
Apogee: 1,203.0 km
Inclination: 82.6 °
Period: 108.5 minutes
Semi major axis: 7537 km
RCS: Unknown
Launch date: August 15, 1991
Source: Commonwealth of Independent States (former USSR) (CIS)
Launch site: PLESETSK MISSILE AND SPACE COMPLEX (PKMTR)

Note: This is SATELLITE DEBRIS
aabbcc
Your satellite tracking list
Your tracking list is empty




NASA's NSSDC Master Catalog

Two Line Element Set (TLE):
1 45276U 91056N   21296.41400954  .00000320  00000-0  68811-3 0  9994
2 45276  82.5879 253.5729 0048203 323.2853  36.4976 13.26626162 81820
Source of the keplerian elements: AFSPC